Regional Weather Roundup
Issued by NWS

Home | Current Version | Previous Version | Text Only | Print | Product List | Glossary On
Versions: 1 2 3 4 5 6 7 8 9 10 11 12 13 14 15 16 17 18 19 20 21 22 23 24 25 26 27 28 29 30 31 32 33 34 35 36 37 38 39 40 41 42 43 44 45 46 47 48
000
ASUS45 KBOI 042010
RWRID
WEATHER ROUNDUP FOR IDAHO
NATIONAL WEATHER SERVICE BOISE ID
200 PM MDT MON MAY 04 2015

NOTE: "FAIR" INDICATES FEW OR NO CLOUDS BELOW 12000 FEET
WITH NO SIGNIFICANT WEATHER AND/OR OBSTRUCTIONS TO VISIBILITY

IDZ012-014-042100-
SOUTHWEST IDAHO


CITY           SKY/WX    TMP DP  RH WIND       PRES   REMARKS
BOISE          SUNNY     80  36  20 SE6       29.82F
CALDWELL       SUNNY     79  39  24 NW6       29.83F
MOUNTAIN HOME  SUNNY     78  37  22 E8        29.82F
$$

IDZ016-017-042100-
SOUTHCENTRAL IDAHO


CITY           SKY/WX    TMP DP  RH WIND       PRES   REMARKS
BURLEY         MOSUNNY   73  35  25 N6        29.87F
JEROME         SUNNY     77  32  19 CALM      29.88F
TWIN FALLS     MOSUNNY   76  38  25 NE10      29.88F
$$

IDZ019>023-042100-
SOUTHEAST IDAHO


CITY           SKY/WX    TMP DP  RH WIND       PRES   REMARKS
IDAHO FALLS    MOSUNNY   72  35  25 SW10      29.94F
POCATELLO      MOSUNNY   75  31  19 N7        29.92F
REXBURG        MOSUNNY   69  34  27 W9G17     29.94F
$$

IDZ006-010-011-018-031-032-042100-
CENTRAL IDAHO MOUNTAINS


CITY           SKY/WX    TMP DP  RH WIND       PRES   REMARKS
MCCALL         PTSUNNY   67  27  22 S6        29.91F
HAILEY         MOSUNNY   66  37  34 SE8       29.95F
STANLEY        NOT AVBL
SALMON           N/A     72  36  26 NE3       29.88F
CHALLIS        MOSUNNY   72  27  18 NE7       29.92F
$$

IDZ002-004-006-007-026-042100-
NORTHERN IDAHO


CITY           SKY/WX    TMP DP  RH WIND       PRES   REMARKS
LEWISTON       SUNNY     74  32  21 VRB3      29.81F
LOWELL           N/A     77  35  21 N3        29.79F
COEUR D`ALENE  SUNNY     70  27  19 SW3       29.86F
MULLAN PASS    SUNNY     57  19  22 SW8       29.96F
$$



USA.gov is the U.S. government's official web portal to all federal, state and local government web resources and services.